Regional Weather Roundup
Issued by NWS

Home | Current Version | Previous Version | Text Only | Print | Product List | Glossary On
Versions: 1 2 3 4 5 6 7 8 9 10 11 12 13 14 15 16 17 18 19 20 21 22 23 24 25 26 27 28 29 30 31 32 33 34 35 36 37 38 39 40 41 42 43 44 45 46 47 48 49 50
663
ASUS44 KBMX 121810
RWRAL

ALABAMA REGIONAL WEATHER ROUNDUP
NATIONAL WEATHER SERVICE BIRMINGHAM AL
1200 PM CST FRI FEB 12 2016

NOTE: "FAIR" INDICATES FEW OR NO CLOUDS BELOW 12,000 FEET
WITH NO SIGNIFICANT WEATHER AND/OR OBSTRUCTIONS TO VISIBILITY.

THE REMARK "TC" DENOTES TEMPERATURE IN DEGREES CELSIUS.

ALZ001>011-014-016>018-020-121900-
NORTH ALABAMA

CITY           SKY/WX    TMP DP  RH WIND       PRES   REMARKS
MUSCLE SHOALS  SUNNY     55  27  34 W18G25    30.18S
6HR MIN TEMP:  33; 6HR MAX TEMP:  55;

HUNTSVILLE     MOSUNNY   55  28  35 NW15G21   30.14F
6HR MIN TEMP:  34; 6HR MAX TEMP:  56;

DECATUR        SUNNY     52  30  43 W14       30.16F
6HR MIN TEMP:  32; 6HR MAX TEMP:  53;

HALEYVILLE     FAIR      56  29  35 NW13G20   30.17S
6HR MIN TEMP:  27; 6HR MAX TEMP:  56;

GADSDEN        SUNNY     60  35  39 W17       30.12F
6HR MIN TEMP:  29; 6HR MAX TEMP:  60;

$$

ALZ012-013-022-023-030>036-040>044-121900-
WEST CENTRAL ALABAMA

CITY           SKY/WX    TMP DP  RH WIND       PRES   REMARKS
TUSCALOOSA     SUNNY     62  33  33 W12G21    30.18F
6HR MIN TEMP:  35; 6HR MAX TEMP:  63;

$$

ALZ015-024>027-033>036-040>044-121900-
CENTRAL ALABAMA

CITY           SKY/WX    TMP DP  RH WIND       PRES   REMARKS
BIRMINGHAM     SUNNY     59  33  37 W14G21    30.16F
6HR MIN TEMP:  40; 6HR MAX TEMP:  60;

MONTGOMERY     SUNNY     64  48  56 SW8       30.16F
6HR MIN TEMP:  42; 6HR MAX TEMP:  64;

SHELBY CO ARPT SUNNY     62  36  37 NW12      30.14F
6HR MIN TEMP:  40; 6HR MAX TEMP:  62;

MAXWELL AFB    NOT AVBL
GREENVILLE     FAIR      66  48  52 W13       30.14
6HR MIN TEMP:  52; 6HR MAX TEMP:  67;

$$

ALZ019-021-028-029-037-038-045>048-121900-
EAST CENTRAL ALABAMA

CITY           SKY/WX    TMP DP  RH WIND       PRES   REMARKS
ANNISTON       SUNNY     59  33  37 W13       30.12F
6HR MIN TEMP:  38; 6HR MAX TEMP:  60;

ALEXANDER CITY SUNNY     60  42  50 W16       30.11F
6HR MIN TEMP:  36; 6HR MAX TEMP:  60;

AUBURN         SUNNY     63  43  48 W14G20    30.12F
6HR MIN TEMP:  40; 6HR MAX TEMP:  63;

$$

ALZ051>064-121900-
SOUTHWEST ALABAMA

CITY           SKY/WX    TMP DP  RH WIND       PRES   REMARKS
MOBILE         SUNNY     72  54  53 W14G22    30.20F
6HR MIN TEMP:  57; 6HR MAX TEMP:  72;

BROOKLEY FIELD MOSUNNY   73  53  49 NW15G21   30.21F
6HR MIN TEMP:  60; 6HR MAX TEMP:  74;

EVERGREEN      MOSUNNY   68  51  54 VRB7G16   30.18F
6HR MIN TEMP:  57; 6HR MAX TEMP:  69;

$$

ALZ049-050-065>069-121900-
SOUTHEAST ALABAMA

CITY           SKY/WX    TMP DP  RH WIND       PRES   REMARKS
DOTHAN         MOSUNNY   68  52  56 W17G23    30.18F
6HR MIN TEMP:  55; 6HR MAX TEMP:  69;

OZARK          NOT AVBL
TROY           MOSUNNY   68  52  56 W8G18     30.16F
6HR MIN TEMP:  51; 6HR MAX TEMP:  68;

EUFAULA        PTSUNNY   66  53  63 SW13G20   30.12F
6HR MIN TEMP:  43; 6HR MAX TEMP:  66;

$$




USA.gov is the U.S. government's official web portal to all federal, state and local government web resources and services.